User: anonymous   Login
Location: ??????
(42.0089°N, 44.3281°E)
Time: 05:58:08
(UTC+00:00)
Language:

Cosmos 2251 Rocket - Orbit

View from above orbital plane
View from above orbital plane
View from above satellite
View from above satellite

Ground track
Ground track

The orbit data is extracted from the following two-line orbital elements,

1 22676U 93036B   23337.60561939  .00000367  00000-0  13943-3 0  9990
2 22676  74.0405 184.0240 0018764 350.1810   9.8972 14.34442586593393
Epoch (UTC): 03 December 2023 14:32:05
Eccentricity: 0.0018764
inclination: 74.0405°
perigee height: 763 km
apogee height: 790 km
right ascension of ascending node: 184.0240°
argument of perigee: 350.1810°
revolutions per day: 14.34442586
mean anomaly at epoch: 9.8972°
orbit number at epoch: 59339

The dashed part of the orbit path shows where the satellite is in the earth's shadow,  

DLR